Time,TemperatureF,DewpointF,PressureIn,WindDirection,WindDirectionDegrees,WindSpeedMPH,WindSpeedGustMPH,Humidity,HourlyPrecipIn,Conditions,Clouds,dailyrainin,SoftwareType,DateUTC
2013-03-02 00:01:00,28.2,25.4,29.55,NW,315,0.0,0.0,89,0.00,,,0.00,WUHU216HW,2013-03-02 09:01:00,
2013-03-02 00:06:00,28.2,25.4,29.55,NW,315,0.0,0.0,89,0.00,,,0.00,WUHU216HW,2013-03-02 09:06:00,
2013-03-02 00:11:00,28.2,25.4,29.55,NW,315,0.0,0.0,89,0.00,,,0.00,WUHU216HW,2013-03-02 09:11:00,
2013-03-02 00:16:00,28.4,25.5,29.55,NW,315,0.0,0.0,89,0.00,,,0.00,WUHU216HW,2013-03-02 09:16:00,
2013-03-02 00:21:00,28.5,25.7,29.55,NW,315,0.0,0.0,89,0.00,,,0.00,WUHU216HW,2013-03-02 09:21:00,
2013-03-02 00:26:00,28.5,25.7,29.55,NW,315,0.0,0.0,89,0.00,,,0.00,WUHU216HW,2013-03-02 09:26:00,
2013-03-02 00:31:00,28.5,25.7,29.56,NW,315,0.0,0.0,89,0.00,,,0.00,WUHU216HW,2013-03-02 09:31:00,
2013-03-02 00:36:00,28.5,25.7,29.56,NW,315,0.0,0.0,89,0.00,,,0.00,WUHU216HW,2013-03-02 09:36:00,
2013-03-02 00:41:00,28.5,25.7,29.56,NW,315,0.0,0.0,89,0.00,,,0.00,WUHU216HW,2013-03-02 09:41:00,
2013-03-02 00:46:00,28.5,25.7,29.56,NW,315,0.0,0.0,89,0.00,,,0.00,WUHU216HW,2013-03-02 09:46:00,
2013-03-02 00:51:00,28.5,25.9,29.57,NW,315,0.0,0.0,89,0.00,,,0.00,WUHU216HW,2013-03-02 09:51:00,
2013-03-02 00:56:00,28.5,25.7,29.57,NW,315,0.0,0.0,89,0.00,,,0.00,WUHU216HW,2013-03-02 09:56:00,
2013-03-02 01:01:00,28.5,25.7,29.57,NW,315,0.0,0.0,89,0.00,,,0.00,WUHU216HW,2013-03-02 10:01:00,
2013-03-02 01:06:00,28.5,25.7,29.57,NW,315,0.0,0.0,89,0.00,,,0.00,WUHU216HW,2013-03-02 10:06:00,
2013-03-02 01:11:00,28.4,25.5,29.57,NW,315,0.0,0.0,89,0.00,,,0.00,WUHU216HW,2013-03-02 10:11:00,
2013-03-02 01:16:00,28.2,25.4,29.57,NW,315,0.0,0.0,89,0.00,,,0.00,WUHU216HW,2013-03-02 10:16:00,
2013-03-02 01:21:00,28.2,25.4,29.57,NW,315,0.0,0.0,89,0.00,,,0.00,WUHU216HW,2013-03-02 10:21:00,
2013-03-02 01:26:00,28.0,25.2,29.57,NW,315,0.0,0.0,89,0.00,,,0.00,WUHU216HW,2013-03-02 10:26:00,
2013-03-02 01:31:00,28.0,25.2,29.58,NW,315,0.0,0.0,89,0.00,,,0.00,WUHU216HW,2013-03-02 10:31:00,
2013-03-02 01:36:00,27.6,24.8,29.58,NW,315,0.0,0.0,89,0.00,,,0.00,WUHU216HW,2013-03-02 10:36:00,
2013-03-02 01:41:00,27.6,24.8,29.58,NW,315,0.0,0.0,89,0.00,,,0.00,WUHU216HW,2013-03-02 10:41:00,
2013-03-02 01:46:00,27.3,24.2,29.58,NW,315,0.0,0.0,88,0.00,,,0.00,WUHU216HW,2013-03-02 10:46:00,
2013-03-02 01:51:00,27.3,24.0,29.58,NW,315,0.0,0.0,88,0.00,,,0.00,WUHU216HW,2013-03-02 10:51:00,
2013-03-02 01:56:00,27.1,24.0,29.58,NW,315,0.0,0.0,88,0.00,,,0.00,WUHU216HW,2013-03-02 10:56:00,
2013-03-02 02:01:00,26.9,23.8,29.58,NW,315,0.0,0.0,88,0.00,,,0.00,WUHU216HW,2013-03-02 11:01:00,
2013-03-02 02:06:00,26.7,23.6,29.58,NW,315,0.0,0.0,88,0.00,,,0.00,WUHU216HW,2013-03-02 11:06:00,
2013-03-02 02:11:00,26.6,23.5,29.58,NW,315,0.0,0.0,88,0.00,,,0.00,WUHU216HW,2013-03-02 11:11:00,
2013-03-02 02:16:00,26.6,23.7,29.58,NW,315,0.0,0.0,89,0.00,,,0.00,WUHU216HW,2013-03-02 11:16:00,
2013-03-02 02:21:00,26.4,23.6,29.58,NW,315,0.0,0.0,89,0.00,,,0.00,WUHU216HW,2013-03-02 11:21:00,
2013-03-02 02:26:00,26.4,23.6,29.58,NW,315,0.0,0.0,89,0.00,,,0.00,WUHU216HW,2013-03-02 11:26:00,
2013-03-02 02:31:00,26.4,23.6,29.58,NW,315,0.0,0.0,89,0.00,,,0.00,WUHU216HW,2013-03-02 11:31:00,
2013-03-02 02:36:00,26.4,23.6,29.59,NW,315,0.0,0.0,89,0.00,,,0.00,WUHU216HW,2013-03-02 11:36:00,
2013-03-02 02:41:00,26.4,23.6,29.59,NW,315,0.0,0.0,89,0.00,,,0.00,WUHU216HW,2013-03-02 11:41:00,
2013-03-02 02:46:00,26.4,23.6,29.59,NW,315,0.0,0.0,89,0.00,,,0.00,WUHU216HW,2013-03-02 11:46:00,
2013-03-02 02:51:00,26.4,23.6,29.59,NW,315,0.0,0.0,89,0.00,,,0.00,WUHU216HW,2013-03-02 11:51:00,
2013-03-02 02:56:00,26.4,23.6,29.59,NW,315,0.0,0.0,89,0.00,,,0.00,WUHU216HW,2013-03-02 11:56:00,
2013-03-02 03:01:00,26.4,23.6,29.59,NW,315,0.0,0.0,89,0.00,,,0.00,WUHU216HW,2013-03-02 12:01:00,
2013-03-02 03:06:00,26.2,23.4,29.60,NW,315,0.0,0.0,89,0.00,,,0.00,WUHU216HW,2013-03-02 12:06:00,
2013-03-02 03:11:00,26.2,23.4,29.60,NW,315,0.0,0.0,89,0.00,,,0.00,WUHU216HW,2013-03-02 12:11:00,
2013-03-02 03:16:00,25.8,23.0,29.60,NW,315,0.0,0.0,89,0.00,,,0.00,WUHU216HW,2013-03-02 12:16:00,
2013-03-02 03:21:00,25.7,22.8,29.60,NW,315,0.0,0.0,89,0.00,,,0.00,WUHU216HW,2013-03-02 12:21:00,
2013-03-02 03:26:00,25.5,22.7,29.60,NW,315,0.0,0.0,89,0.00,,,0.00,WUHU216HW,2013-03-02 12:26:00,
2013-03-02 03:31:00,25.3,22.5,29.60,NW,315,0.0,0.0,89,0.00,,,0.00,WUHU216HW,2013-03-02 12:31:00,
2013-03-02 03:36:00,25.3,22.5,29.59,NW,315,0.0,0.0,89,0.00,,,0.00,WUHU216HW,2013-03-02 12:36:00,
2013-03-02 03:41:00,25.1,22.3,29.59,NW,315,0.0,0.0,89,0.00,,,0.00,WUHU216HW,2013-03-02 12:41:00,
2013-03-02 03:46:00,24.9,22.1,29.59,NW,315,0.0,0.0,89,0.00,,,0.00,WUHU216HW,2013-03-02 12:46:00,
2013-03-02 03:51:00,24.9,22.1,29.59,NW,315,0.0,0.0,89,0.00,,,0.00,WUHU216HW,2013-03-02 12:51:00,
2013-03-02 03:56:00,24.9,22.1,29.59,NW,315,0.0,0.0,89,0.00,,,0.00,WUHU216HW,2013-03-02 12:56:00,
2013-03-02 04:02:00,24.9,22.1,29.59,NW,315,0.0,0.0,89,0.00,,,0.00,WUHU216HW,2013-03-02 13:02:00,
2013-03-02 04:07:00,24.8,22.0,29.59,NW,315,0.0,0.0,89,0.00,,,0.00,WUHU216HW,2013-03-02 13:07:00,
2013-03-02 04:12:00,24.6,21.8,29.58,NW,315,0.0,0.0,89,0.00,,,0.00,WUHU216HW,2013-03-02 13:12:00,
2013-03-02 04:17:00,24.6,21.8,29.58,NW,315,0.0,0.0,89,0.00,,,0.00,WUHU216HW,2013-03-02 13:17:00,
2013-03-02 04:22:00,24.4,21.6,29.58,NW,315,0.0,0.0,89,0.00,,,0.00,WUHU216HW,2013-03-02 13:22:00,
2013-03-02 04:27:00,24.4,21.6,29.58,NW,315,0.0,0.0,89,0.00,,,0.00,WUHU216HW,2013-03-02 13:27:00,
2013-03-02 04:32:00,24.4,21.6,29.58,NW,315,0.0,0.0,89,0.00,,,0.00,WUHU216HW,2013-03-02 13:32:00,
2013-03-02 04:37:00,24.4,21.6,29.58,NW,315,0.0,0.0,89,0.00,,,0.00,WUHU216HW,2013-03-02 13:37:00,
2013-03-02 04:42:00,24.4,21.6,29.58,NW,315,0.0,0.0,89,0.00,,,0.00,WUHU216HW,2013-03-02 13:42:00,
2013-03-02 04:47:00,24.4,21.6,29.57,NW,315,0.0,0.0,89,0.00,,,0.00,WUHU216HW,2013-03-02 13:47:00,
2013-03-02 04:52:00,24.4,21.6,29.58,NW,315,0.0,0.0,89,0.00,,,0.00,WUHU216HW,2013-03-02 13:52:00,
2013-03-02 04:57:00,24.4,21.6,29.58,NW,315,0.0,0.0,89,0.00,,,0.00,WUHU216HW,2013-03-02 13:57:00,
2013-03-02 05:02:00,24.2,21.4,29.58,NW,315,0.0,0.0,89,0.00,,,0.00,WUHU216HW,2013-03-02 14:02:00,
2013-03-02 05:07:00,24.0,21.2,29.58,NW,315,0.0,0.0,89,0.00,,,0.00,WUHU216HW,2013-03-02 14:07:00,
2013-03-02 05:12:00,24.0,21.2,29.58,NW,315,0.0,0.0,89,0.00,,,0.00,WUHU216HW,2013-03-02 14:12:00,
2013-03-02 05:17:00,24.0,21.2,29.59,NW,315,0.0,0.0,89,0.00,,,0.00,WUHU216HW,2013-03-02 14:17:00,
2013-03-02 05:22:00,23.9,21.1,29.59,NW,315,0.0,0.0,89,0.00,,,0.00,WUHU216HW,2013-03-02 14:22:00,
2013-03-02 05:27:00,23.9,21.1,29.59,NW,315,0.0,0.0,89,0.00,,,0.00,WUHU216HW,2013-03-02 14:27:00,
2013-03-02 05:32:00,23.9,21.1,29.59,NW,315,0.0,0.0,89,0.00,,,0.00,WUHU216HW,2013-03-02 14:32:00,
2013-03-02 05:37:00,23.7,20.9,29.59,NW,315,0.0,0.0,89,0.00,,,0.00,WUHU216HW,2013-03-02 14:37:00,
2013-03-02 05:42:00,23.5,20.7,29.59,NW,315,0.0,0.0,89,0.00,,,0.00,WUHU216HW,2013-03-02 14:42:00,
2013-03-02 05:47:00,23.5,20.7,29.59,NW,315,0.0,0.0,89,0.00,,,0.00,WUHU216HW,2013-03-02 14:47:00,
2013-03-02 05:52:00,23.5,20.7,29.59,NW,315,0.0,0.0,89,0.00,,,0.00,WUHU216HW,2013-03-02 14:52:00,
2013-03-02 05:57:00,23.3,20.5,29.59,NW,315,0.0,0.0,89,0.00,,,0.00,WUHU216HW,2013-03-02 14:57:00,
2013-03-02 06:02:00,23.1,20.3,29.59,NW,315,0.0,0.0,89,0.00,,,0.00,WUHU216HW,2013-03-02 15:02:00,
2013-03-02 06:07:00,23.0,20.2,29.59,NW,315,0.0,0.0,89,0.00,,,0.00,WUHU216HW,2013-03-02 15:07:00,
2013-03-02 06:12:00,22.8,20.0,29.60,NW,315,0.0,0.0,89,0.00,,,0.00,WUHU216HW,2013-03-02 15:12:00,
2013-03-02 06:17:00,22.8,20.0,29.60,NW,315,0.0,0.0,89,0.00,,,0.00,WUHU216HW,2013-03-02 15:17:00,
2013-03-02 06:22:00,22.4,19.6,29.59,NW,315,0.0,0.0,89,0.00,,,0.00,WUHU216HW,2013-03-02 15:22:00,
2013-03-02 06:27:00,22.2,19.4,29.60,NW,315,0.0,0.0,89,0.00,,,0.00,WUHU216HW,2013-03-02 15:27:00,
2013-03-02 06:32:00,22.2,19.4,29.60,NW,315,0.0,0.0,89,0.00,,,0.00,WUHU216HW,2013-03-02 15:32:00,
2013-03-02 06:37:00,21.9,19.1,29.60,NW,315,0.0,0.0,89,0.00,,,0.00,WUHU216HW,2013-03-02 15:37:00,
2013-03-02 06:42:00,21.9,19.1,29.60,NW,315,0.0,0.0,89,0.00,,,0.00,WUHU216HW,2013-03-02 15:42:00,
2013-03-02 06:47:00,21.7,18.9,29.60,NW,315,0.0,0.0,89,0.00,,,0.00,WUHU216HW,2013-03-02 15:47:00,
2013-03-02 06:52:00,21.3,18.5,29.60,NW,315,0.0,0.0,89,0.00,,,0.00,WUHU216HW,2013-03-02 15:52:00,
2013-03-02 06:57:00,21.3,18.5,29.60,NW,315,0.0,0.0,89,0.00,,,0.00,WUHU216HW,2013-03-02 15:57:00,
2013-03-02 07:02:00,21.2,18.4,29.60,NW,315,0.0,0.0,89,0.00,,,0.00,WUHU216HW,2013-03-02 16:02:00,
2013-03-02 07:07:00,21.0,18.2,29.60,NW,315,0.0,0.0,89,0.00,,,0.00,WUHU216HW,2013-03-02 16:07:00,
2013-03-02 07:12:00,21.0,18.2,29.60,NW,315,0.0,0.0,89,0.00,,,0.00,WUHU216HW,2013-03-02 16:12:00,
2013-03-02 07:17:00,20.8,18.0,29.60,NW,315,0.0,0.0,89,0.00,,,0.00,WUHU216HW,2013-03-02 16:17:00,
2013-03-02 07:22:00,20.8,18.0,29.60,NW,315,0.0,0.0,89,0.00,,,0.00,WUHU216HW,2013-03-02 16:22:00,
2013-03-02 07:27:00,20.8,18.0,29.60,NW,315,0.0,0.0,89,0.00,,,0.00,WUHU216HW,2013-03-02 16:27:00,
2013-03-02 07:32:00,21.0,18.2,29.60,NW,315,0.0,0.0,89,0.00,,,0.00,WUHU216HW,2013-03-02 16:32:00,
2013-03-02 07:37:00,21.0,18.2,29.60,NW,315,0.0,0.0,89,0.00,,,0.00,WUHU216HW,2013-03-02 16:37:00,
2013-03-02 07:42:00,21.0,18.2,29.60,NW,315,0.0,0.0,89,0.00,,,0.00,WUHU216HW,2013-03-02 16:42:00,
2013-03-02 07:47:00,21.3,18.5,29.60,NW,315,0.0,0.0,89,0.00,,,0.00,WUHU216HW,2013-03-02 16:47:00,
2013-03-02 07:52:00,21.3,18.5,29.60,NW,315,0.0,0.0,89,0.00,,,0.00,WUHU216HW,2013-03-02 16:52:00,
2013-03-02 07:57:00,21.5,18.7,29.60,NW,315,0.0,0.0,89,0.00,,,0.00,WUHU216HW,2013-03-02 16:57:00,
2013-03-02 08:02:00,21.5,18.7,29.60,NW,315,0.0,0.0,89,0.00,,,0.00,WUHU216HW,2013-03-02 17:02:00,
2013-03-02 08:07:00,21.9,19.1,29.60,NW,315,0.0,0.0,89,0.00,,,0.00,WUHU216HW,2013-03-02 17:07:00,
2013-03-02 08:12:00,21.9,19.1,29.60,NW,315,0.0,0.0,89,0.00,,,0.00,WUHU216HW,2013-03-02 17:12:00,
2013-03-02 08:17:00,21.9,19.1,29.60,NW,315,0.0,0.0,89,0.00,,,0.00,WUHU216HW,2013-03-02 17:17:00,
2013-03-02 08:22:00,22.1,19.4,29.60,NW,315,0.0,0.0,89,0.00,,,0.00,WUHU216HW,2013-03-02 17:22:00,
2013-03-02 08:27:00,22.2,19.4,29.61,NW,315,0.0,0.0,89,0.00,,,0.00,WUHU216HW,2013-03-02 17:27:00,
2013-03-02 08:32:00,22.4,19.6,29.61,NW,315,0.0,0.0,89,0.00,,,0.00,WUHU216HW,2013-03-02 17:32:00,
2013-03-02 08:37:00,22.4,19.6,29.61,NW,315,0.0,0.0,89,0.00,,,0.00,WUHU216HW,2013-03-02 17:37:00,
2013-03-02 08:42:00,22.6,19.8,29.61,NW,315,0.0,0.0,89,0.00,,,0.00,WUHU216HW,2013-03-02 17:42:00,
2013-03-02 08:47:00,22.8,20.0,29.61,NW,315,0.0,0.0,89,0.00,,,0.00,WUHU216HW,2013-03-02 17:47:00,
2013-03-02 08:52:00,23.0,20.2,29.61,NW,315,0.0,0.0,89,0.00,,,0.00,WUHU216HW,2013-03-02 17:52:00,
2013-03-02 08:57:00,23.1,20.3,29.61,NW,315,0.0,0.0,89,0.00,,,0.00,WUHU216HW,2013-03-02 17:57:00,
2013-03-02 09:02:00,23.1,20.3,29.60,NW,315,0.0,0.0,89,0.00,,,0.00,WUHU216HW,2013-03-02 18:02:00,
2013-03-02 09:07:00,23.3,20.8,29.61,NW,315,0.0,0.0,90,0.00,,,0.00,WUHU216HW,2013-03-02 18:07:00,
2013-03-02 09:12:00,23.7,21.2,29.61,NW,315,0.0,0.0,90,0.00,,,0.00,WUHU216HW,2013-03-02 18:12:00,
2013-03-02 09:17:00,23.9,21.3,29.61,NW,315,0.0,0.0,90,0.00,,,0.00,WUHU216HW,2013-03-02 18:17:00,
2013-03-02 09:22:00,24.0,21.5,29.61,NW,315,0.0,0.0,90,0.00,,,0.00,WUHU216HW,2013-03-02 18:22:00,
2013-03-02 09:27:00,24.4,21.9,29.61,NW,315,0.0,0.0,90,0.00,,,0.00,WUHU216HW,2013-03-02 18:27:00,
2013-03-02 09:32:00,24.4,21.6,29.61,NW,315,0.0,0.0,89,0.00,,,0.00,WUHU216HW,2013-03-02 18:32:00,
2013-03-02 09:37:00,24.4,21.6,29.60,NW,315,0.0,0.0,89,0.00,,,0.00,WUHU216HW,2013-03-02 18:37:00,
2013-03-02 09:42:00,24.4,21.6,29.60,NW,315,0.0,0.0,89,0.00,,,0.00,WUHU216HW,2013-03-02 18:42:00,
2013-03-02 09:47:00,24.4,21.6,29.61,NW,315,0.0,0.0,89,0.00,,,0.00,WUHU216HW,2013-03-02 18:47:00,
2013-03-02 09:52:00,24.4,21.6,29.61,WNW,293,0.0,0.0,89,0.00,,,0.00,WUHU216HW,2013-03-02 18:52:00,
2013-03-02 09:57:00,24.2,21.4,29.61,WNW,293,0.0,0.0,89,0.00,,,0.00,WUHU216HW,2013-03-02 18:57:00,
2013-03-02 10:02:00,24.4,21.6,29.61,WNW,293,0.0,0.0,89,0.00,,,0.00,WUHU216HW,2013-03-02 19:02:00,
2013-03-02 10:07:00,24.6,21.8,29.61,WNW,293,0.0,0.0,89,0.00,,,0.00,WUHU216HW,2013-03-02 19:07:00,
2013-03-02 10:12:00,24.6,21.8,29.61,WNW,293,0.0,0.0,89,0.00,,,0.00,WUHU216HW,2013-03-02 19:12:00,
2013-03-02 10:17:00,24.6,21.8,29.61,WNW,293,0.0,0.0,89,0.00,,,0.00,WUHU216HW,2013-03-02 19:17:00,
2013-03-02 10:22:00,25.1,22.3,29.61,WNW,293,0.0,0.0,89,0.00,,,0.00,WUHU216HW,2013-03-02 19:22:00,
2013-03-02 10:27:00,25.8,23.3,29.62,WNW,293,0.0,0.0,90,0.00,,,0.00,WUHU216HW,2013-03-02 19:27:00,
2013-03-02 10:32:00,28.7,26.4,29.62,WNW,293,0.0,0.0,91,0.00,,,0.00,WUHU216HW,2013-03-02 19:32:00,
2013-03-02 10:37:00,30.2,27.9,29.62,WNW,293,0.0,0.0,91,0.00,,,0.00,WUHU216HW,2013-03-02 19:37:00,
2013-03-02 10:42:00,30.7,28.4,29.61,WNW,293,0.0,0.0,91,0.00,,,0.00,WUHU216HW,2013-03-02 19:42:00,
2013-03-02 10:47:00,30.9,28.4,29.61,WNW,293,0.0,0.0,90,0.00,,,0.00,WUHU216HW,2013-03-02 19:47:00,
2013-03-02 10:52:00,30.7,27.9,29.61,WNW,293,0.0,0.0,89,0.00,,,0.00,WUHU216HW,2013-03-02 19:52:00,
2013-03-02 10:57:00,30.5,27.4,29.61,WNW,293,0.0,0.0,88,0.00,,,0.00,WUHU216HW,2013-03-02 19:57:00,
2013-03-02 11:03:00,30.3,27.2,29.61,WNW,293,0.0,0.0,88,0.00,,,0.00,WUHU216HW,2013-03-02 20:03:00,
2013-03-02 11:08:00,30.2,27.1,29.61,WNW,293,0.0,0.0,88,0.00,,,0.00,WUHU216HW,2013-03-02 20:08:00,
2013-03-02 11:13:00,30.2,26.8,29.61,WNW,293,0.0,0.0,87,0.00,,,0.00,WUHU216HW,2013-03-02 20:13:00,
2013-03-02 11:18:00,30.3,26.9,29.61,WNW,293,0.0,0.0,87,0.00,,,0.00,WUHU216HW,2013-03-02 20:18:00,
2013-03-02 11:23:00,30.5,27.1,29.60,WNW,293,0.0,0.0,87,0.00,,,0.00,WUHU216HW,2013-03-02 20:23:00,
2013-03-02 11:28:00,30.9,27.2,29.60,NW,315,0.0,0.0,86,0.00,,,0.00,WUHU216HW,2013-03-02 20:28:00,
2013-03-02 11:34:00,31.1,27.4,29.60,NW,315,0.0,0.0,86,0.00,,,0.00,WUHU216HW,2013-03-02 20:34:00,
2013-03-02 11:39:00,31.2,27.6,29.60,NW,315,0.0,0.0,86,0.00,,,0.00,WUHU216HW,2013-03-02 20:39:00,
2013-03-02 11:44:00,31.6,27.9,29.60,NW,315,0.0,0.0,86,0.00,,,0.00,WUHU216HW,2013-03-02 20:44:00,
2013-03-02 11:49:00,31.8,27.8,29.60,NW,315,0.0,0.0,85,0.00,,,0.00,WUHU216HW,2013-03-02 20:49:00,
2013-03-02 11:54:00,32.1,28.2,29.60,NW,315,0.0,0.0,85,0.00,,,0.00,WUHU216HW,2013-03-02 20:54:00,
2013-03-02 11:59:00,32.5,28.5,29.61,NW,315,0.0,0.0,85,0.00,,,0.00,WUHU216HW,2013-03-02 20:59:00,
2013-03-02 12:04:00,33.6,29.4,29.61,NW,315,0.0,0.0,85,0.00,,,0.00,WUHU216HW,2013-03-02 21:04:00,
2013-03-02 12:09:00,36.1,32.0,29.61,NW,315,0.0,0.0,85,0.00,,,0.00,WUHU216HW,2013-03-02 21:09:00,
2013-03-02 12:14:00,36.6,31.6,29.61,NW,315,0.0,0.0,82,0.00,,,0.00,WUHU216HW,2013-03-02 21:14:00,
2013-03-02 12:19:00,37.9,32.9,29.61,NW,315,0.0,0.0,82,0.00,,,0.00,WUHU216HW,2013-03-02 21:19:00,
2013-03-02 12:24:00,41.1,34.7,29.61,NW,315,0.0,0.0,80,0.00,,,0.00,WUHU216HW,2013-03-02 21:24:00,
2013-03-02 12:29:00,42.6,35.8,29.61,NW,315,0.0,0.0,77,0.00,,,0.00,WUHU216HW,2013-03-02 21:29:00,
2013-03-02 12:34:00,44.4,36.6,29.61,NW,315,0.0,0.0,74,0.00,,,0.00,WUHU216HW,2013-03-02 21:34:00,
2013-03-02 12:39:00,47.1,38.2,29.61,NW,315,0.0,0.0,71,0.00,,,0.00,WUHU216HW,2013-03-02 21:39:00,
2013-03-02 12:44:00,48.5,38.4,29.61,NNW,338,0.0,0.0,68,0.00,,,0.00,WUHU216HW,2013-03-02 21:44:00,
2013-03-02 12:49:00,49.1,37.4,29.61,ENE,68,0.0,0.0,64,0.00,,,0.00,WUHU216HW,2013-03-02 21:49:00,
2013-03-02 12:54:00,49.2,36.8,29.61,ENE,68,0.0,0.0,62,0.00,,,0.00,WUHU216HW,2013-03-02 21:54:00,
2013-03-02 12:59:00,49.1,36.2,29.61,ENE,68,0.0,0.0,61,0.00,,,0.00,WUHU216HW,2013-03-02 21:59:00,
2013-03-02 13:04:00,49.1,35.8,29.61,NE,45,0.0,0.0,60,0.00,,,0.00,WUHU216HW,2013-03-02 22:04:00,
2013-03-02 13:09:00,49.8,36.5,29.60,NNE,23,0.0,0.0,60,0.00,,,0.00,WUHU216HW,2013-03-02 22:09:00,
2013-03-02 13:14:00,50.1,36.3,29.60,NNE,23,0.0,0.0,59,0.00,,,0.00,WUHU216HW,2013-03-02 22:14:00,
2013-03-02 13:19:00,50.0,35.3,29.61,NNE,23,0.0,0.0,57,0.00,,,0.00,WUHU216HW,2013-03-02 22:19:00,
2013-03-02 13:24:00,49.8,35.1,29.61,NE,45,0.0,0.0,57,0.00,,,0.00,WUHU216HW,2013-03-02 22:24:00,
2013-03-02 13:29:00,49.6,34.9,29.60,NE,45,0.0,0.0,57,0.00,,,0.00,WUHU216HW,2013-03-02 22:29:00,
2013-03-02 13:34:00,49.4,34.3,29.61,NE,45,0.0,0.0,56,0.02,,,0.02,WUHU216HW,2013-03-02 22:34:00,
2013-03-02 13:39:00,48.7,34.1,29.60,NNE,23,0.0,0.0,57,0.02,,,0.02,WUHU216HW,2013-03-02 22:39:00,
2013-03-02 13:44:00,47.8,33.2,29.60,NNE,23,0.0,0.0,57,0.02,,,0.02,WUHU216HW,2013-03-02 22:44:00,
2013-03-02 13:49:00,46.7,32.2,29.61,NE,45,0.0,0.0,57,0.02,,,0.02,WUHU216HW,2013-03-02 22:49:00,
2013-03-02 13:54:00,43.5,29.6,29.60,NE,45,0.0,0.0,58,0.02,,,0.02,WUHU216HW,2013-03-02 22:54:00,
2013-03-02 13:59:00,41.1,28.3,29.61,NNE,23,0.0,0.0,60,0.02,,,0.02,WUHU216HW,2013-03-02 22:59:00,
2013-03-02 14:04:00,40.2,27.8,29.61,NE,45,0.0,0.0,61,0.02,,,0.02,WUHU216HW,2013-03-02 23:04:00,
2013-03-02 14:09:00,38.1,27.7,29.61,NE,45,0.0,0.0,66,0.02,,,0.02,WUHU216HW,2013-03-02 23:09:00,
2013-03-02 14:14:00,37.2,27.2,29.61,NE,45,0.0,0.0,67,0.02,,,0.02,WUHU216HW,2013-03-02 23:14:00,
2013-03-02 14:19:00,36.5,26.9,29.61,NE,45,0.0,0.0,68,0.02,,,0.02,WUHU216HW,2013-03-02 23:19:00,
2013-03-02 14:24:00,36.1,27.6,29.60,NNE,23,0.0,0.0,71,0.02,,,0.02,WUHU216HW,2013-03-02 23:24:00,
2013-03-02 14:29:00,36.1,27.9,29.60,North,0,0.0,0.0,72,0.02,,,0.02,WUHU216HW,2013-03-02 23:29:00,
2013-03-02 14:34:00,35.7,27.6,29.60,NNE,23,0.0,0.0,72,0.00,,,0.02,WUHU216HW,2013-03-02 23:34:00,
2013-03-02 14:39:00,35.2,27.3,29.60,NNW,338,0.0,0.0,73,0.00,,,0.02,WUHU216HW,2013-03-02 23:39:00,
2013-03-02 14:44:00,34.8,27.0,29.60,North,0,0.0,0.0,73,0.00,,,0.02,WUHU216HW,2013-03-02 23:44:00,
2013-03-02 14:49:00,34.8,27.3,29.59,North,0,0.0,0.0,74,0.00,,,0.02,WUHU216HW,2013-03-02 23:49:00,
2013-03-02 14:54:00,34.7,27.1,29.60,NNE,23,0.0,0.0,75,0.00,,,0.02,WUHU216HW,2013-03-02 23:54:00,
2013-03-02 14:59:00,34.5,27.3,29.59,NNE,23,0.0,0.0,75,0.00,,,0.02,WUHU216HW,2013-03-02 23:59:00,
2013-03-02 15:04:00,34.5,27.3,29.59,North,0,0.0,0.0,75,0.00,,,0.02,WUHU216HW,2013-03-03 00:04:00,
2013-03-02 15:09:00,34.7,27.8,29.59,NNE,23,0.0,0.0,76,0.00,,,0.02,WUHU216HW,2013-03-03 00:09:00,
2013-03-02 15:14:00,34.7,27.8,29.60,NNE,23,0.0,0.0,76,0.00,,,0.02,WUHU216HW,2013-03-03 00:14:00,
2013-03-02 15:19:00,34.8,28.3,29.60,NNE,23,0.0,0.0,77,0.00,,,0.02,WUHU216HW,2013-03-03 00:19:00,
2013-03-02 15:24:00,34.8,28.3,29.60,NNE,23,0.0,0.0,77,0.00,,,0.02,WUHU216HW,2013-03-03 00:24:00,
2013-03-02 15:29:00,34.8,28.3,29.59,NNE,23,0.0,0.0,77,0.00,,,0.02,WUHU216HW,2013-03-03 00:29:00,
2013-03-02 15:34:00,34.8,28.3,29.59,NE,45,0.0,0.0,77,0.00,,,0.02,WUHU216HW,2013-03-03 00:34:00,
2013-03-02 15:39:00,34.8,28.3,29.60,NE,45,0.0,0.0,77,0.00,,,0.02,WUHU216HW,2013-03-03 00:39:00,
2013-03-02 15:44:00,34.8,28.3,29.59,NNE,23,0.0,0.0,77,0.00,,,0.02,WUHU216HW,2013-03-03 00:44:00,
2013-03-02 15:49:00,34.3,27.7,29.60,NNE,23,0.0,0.0,77,0.00,,,0.02,WUHU216HW,2013-03-03 00:49:00,
2013-03-02 15:54:00,34.3,27.7,29.60,North,0,0.0,0.0,77,0.00,,,0.02,WUHU216HW,2013-03-03 00:54:00,
2013-03-02 15:59:00,34.3,28.1,29.60,NW,315,0.0,0.0,78,0.00,,,0.02,WUHU216HW,2013-03-03 00:59:00,
2013-03-02 16:04:00,33.9,27.7,29.59,NNE,23,0.0,0.0,78,0.00,,,0.02,WUHU216HW,2013-03-03 01:04:00,
2013-03-02 16:09:00,33.6,27.4,29.59,NNE,23,0.0,0.0,78,0.00,,,0.02,WUHU216HW,2013-03-03 01:09:00,
2013-03-02 16:14:00,33.6,27.5,29.59,NNE,23,0.0,0.0,79,0.00,,,0.02,WUHU216HW,2013-03-03 01:14:00,
2013-03-02 16:19:00,33.2,27.4,29.59,NNE,23,0.0,0.0,79,0.00,,,0.02,WUHU216HW,2013-03-03 01:19:00,
2013-03-02 16:24:00,32.7,26.9,29.58,NNE,23,0.0,0.0,79,0.00,,,0.02,WUHU216HW,2013-03-03 01:24:00,
2013-03-02 16:29:00,32.5,27.2,29.58,NNE,23,0.0,0.0,80,0.00,,,0.02,WUHU216HW,2013-03-03 01:29:00,
2013-03-02 16:34:00,32.3,26.9,29.58,North,0,0.0,0.0,80,0.00,,,0.02,WUHU216HW,2013-03-03 01:34:00,
2013-03-02 16:39:00,32.1,27.0,29.58,NNE,23,0.0,0.0,81,0.00,,,0.02,WUHU216HW,2013-03-03 01:39:00,
2013-03-02 16:44:00,32.0,26.8,29.58,NNE,23,0.0,0.0,81,0.00,,,0.02,WUHU216HW,2013-03-03 01:44:00,
2013-03-02 16:50:00,31.8,26.7,29.58,NNE,23,0.0,0.0,81,0.00,,,0.02,WUHU216HW,2013-03-03 01:50:00,
2013-03-02 16:55:00,31.6,26.5,29.58,NNE,23,3.5,3.5,81,0.00,,,0.02,WUHU216HW,2013-03-03 01:55:00,
2013-03-02 17:00:00,31.6,26.5,29.58,NNE,23,1.3,3.5,81,0.00,,,0.02,WUHU216HW,2013-03-03 02:00:00,
2013-03-02 17:05:00,31.4,26.6,29.58,NNE,23,7.8,7.8,82,0.00,,,0.02,WUHU216HW,2013-03-03 02:05:00,
2013-03-02 17:10:00,31.6,26.8,29.58,NNE,23,0.0,7.8,82,0.00,,,0.02,WUHU216HW,2013-03-03 02:10:00,
2013-03-02 17:15:00,31.2,26.4,29.59,NNE,23,5.1,7.8,82,0.00,,,0.02,WUHU216HW,2013-03-03 02:15:00,
2013-03-02 17:20:00,31.2,26.4,29.59,North,0,3.8,5.1,82,0.00,,,0.02,WUHU216HW,2013-03-03 02:20:00,
2013-03-02 17:25:00,31.1,26.2,29.59,North,0,0.0,3.8,82,0.00,,,0.02,WUHU216HW,2013-03-03 02:25:00,
2013-03-02 17:30:00,31.1,26.2,29.59,North,0,0.0,3.8,82,0.00,,,0.02,WUHU216HW,2013-03-03 02:30:00,
2013-03-02 17:35:00,30.7,26.2,29.59,North,0,0.0,2.4,83,0.00,,,0.02,WUHU216HW,2013-03-03 02:35:00,
2013-03-02 17:40:00,30.5,26.0,29.59,NNE,23,2.4,2.4,83,0.00,,,0.02,WUHU216HW,2013-03-03 02:40:00,
2013-03-02 17:45:00,30.3,25.8,29.59,North,0,1.1,6.9,83,0.00,,,0.02,WUHU216HW,2013-03-03 02:45:00,
2013-03-02 17:50:00,30.2,25.6,29.59,NNE,23,0.0,6.9,83,0.00,,,0.02,WUHU216HW,2013-03-03 02:50:00,
2013-03-02 17:55:00,30.0,25.4,29.59,NNE,23,0.0,0.4,83,0.00,,,0.02,WUHU216HW,2013-03-03 02:55:00,
2013-03-02 18:00:00,29.6,25.3,29.60,North,0,0.0,2.6,83,0.00,,,0.02,WUHU216HW,2013-03-03 03:00:00,
2013-03-02 18:05:00,29.4,24.9,29.60,NNE,23,0.0,2.6,83,0.00,,,0.02,WUHU216HW,2013-03-03 03:05:00,
2013-03-02 18:10:00,29.3,24.7,29.60,NNE,23,0.0,2.2,83,0.00,,,0.02,WUHU216HW,2013-03-03 03:10:00,
2013-03-02 18:15:00,29.1,24.5,29.60,NNE,23,0.0,2.9,83,0.00,,,0.02,WUHU216HW,2013-03-03 03:15:00,
2013-03-02 18:20:00,28.5,24.3,29.60,NNE,23,0.0,2.9,84,0.00,,,0.02,WUHU216HW,2013-03-03 03:20:00,
2013-03-02 18:25:00,28.2,23.9,29.60,NNE,23,1.1,1.1,84,0.00,,,0.02,WUHU216HW,2013-03-03 03:25:00,
2013-03-02 18:30:00,28.0,23.6,29.60,NNE,23,0.0,1.1,83,0.00,,,0.02,WUHU216HW,2013-03-03 03:30:00,
2013-03-02 18:35:00,27.6,23.4,29.60,NNE,23,0.0,0.0,84,0.00,,,0.02,WUHU216HW,2013-03-03 03:35:00,
2013-03-02 18:40:00,27.6,23.4,29.60,NNE,23,0.0,0.0,84,0.00,,,0.02,WUHU216HW,2013-03-03 03:40:00,
2013-03-02 18:45:00,27.5,23.2,29.60,NNE,23,0.0,0.0,84,0.00,,,0.02,WUHU216HW,2013-03-03 03:45:00,
2013-03-02 18:50:00,27.1,22.8,29.61,NE,45,0.0,3.1,84,0.00,,,0.02,WUHU216HW,2013-03-03 03:50:00,
2013-03-02 18:55:00,27.1,23.1,29.61,NNE,23,1.5,3.1,85,0.00,,,0.02,WUHU216HW,2013-03-03 03:55:00,
2013-03-02 19:00:00,27.1,23.1,29.61,NNE,23,0.0,2.6,85,0.00,,,0.02,WUHU216HW,2013-03-03 04:00:00,
2013-03-02 19:05:00,26.9,23.0,29.61,NE,45,0.0,1.3,85,0.00,,,0.02,WUHU216HW,2013-03-03 04:05:00,
2013-03-02 19:10:00,26.7,22.8,29.62,NNE,23,0.0,0.0,85,0.00,,,0.02,WUHU216HW,2013-03-03 04:10:00,
2013-03-02 19:15:00,26.7,23.1,29.62,NNE,23,0.0,0.0,86,0.00,,,0.02,WUHU216HW,2013-03-03 04:15:00,
2013-03-02 19:20:00,26.4,22.7,29.61,NNE,23,0.0,0.0,86,0.00,,,0.02,WUHU216HW,2013-03-03 04:20:00,
2013-03-02 19:25:00,26.4,22.7,29.62,NE,45,0.0,0.0,86,0.00,,,0.02,WUHU216HW,2013-03-03 04:25:00,
2013-03-02 19:30:00,26.2,22.5,29.62,NNE,23,0.0,2.2,86,0.00,,,0.02,WUHU216HW,2013-03-03 04:30:00,
2013-03-02 19:35:00,25.8,22.2,29.62,NNE,23,0.0,2.2,86,0.00,,,0.02,WUHU216HW,2013-03-03 04:35:00,
2013-03-02 19:40:00,25.7,22.0,29.63,NNE,23,0.0,1.5,86,0.00,,,0.02,WUHU216HW,2013-03-03 04:40:00,
2013-03-02 19:45:00,25.5,21.8,29.63,NNE,23,0.0,1.5,86,0.00,,,0.02,WUHU216HW,2013-03-03 04:45:00,
2013-03-02 19:50:00,25.5,21.8,29.63,NE,45,0.0,1.1,86,0.00,,,0.02,WUHU216HW,2013-03-03 04:50:00,
2013-03-02 19:55:00,25.3,21.7,29.63,NNE,23,0.0,1.5,86,0.00,,,0.02,WUHU216HW,2013-03-03 04:55:00,
2013-03-02 20:00:00,25.3,21.7,29.63,NNE,23,5.3,5.3,86,0.00,,,0.02,WUHU216HW,2013-03-03 05:00:00,
2013-03-02 20:01:00,25.3,21.7,29.63,NNE,23,0.0,5.3,86,0.00,,,0.02,WUHU216HW,2013-03-03 05:01:00,
2013-03-02 20:06:00,25.1,21.5,29.63,NNE,23,0.0,5.3,86,0.00,,,0.02,WUHU216HW,2013-03-03 05:06:00,
2013-03-02 20:11:00,24.9,21.3,29.63,NE,45,0.0,0.6,86,0.00,,,0.02,WUHU216HW,2013-03-03 05:11:00,
2013-03-02 20:16:00,24.9,21.3,29.63,NE,45,0.0,0.6,86,0.00,,,0.02,WUHU216HW,2013-03-03 05:16:00,
2013-03-02 20:21:00,24.6,21.0,29.63,NNE,23,0.8,0.8,86,0.00,,,0.02,WUHU216HW,2013-03-03 05:21:00,
2013-03-02 20:26:00,24.6,21.0,29.63,NNE,23,0.0,0.8,86,0.00,,,0.02,WUHU216HW,2013-03-03 05:26:00,
2013-03-02 20:31:00,24.4,20.8,29.63,NNE,23,0.0,3.1,86,0.00,,,0.02,WUHU216HW,2013-03-03 05:31:00,
2013-03-02 20:36:00,24.4,21.1,29.63,NNE,23,0.0,3.1,87,0.00,,,0.02,WUHU216HW,2013-03-03 05:36:00,
2013-03-02 20:41:00,24.0,20.7,29.63,NE,45,0.0,0.0,87,0.00,,,0.02,WUHU216HW,2013-03-03 05:41:00,
2013-03-02 20:46:00,24.0,20.7,29.63,NE,45,0.8,0.8,87,0.00,,,0.02,WUHU216HW,2013-03-03 05:46:00,
2013-03-02 20:51:00,24.0,20.7,29.64,NE,45,3.8,3.8,87,0.00,,,0.02,WUHU216HW,2013-03-03 05:51:00,
2013-03-02 20:56:00,23.9,20.5,29.64,NE,45,2.4,3.8,87,0.00,,,0.02,WUHU216HW,2013-03-03 05:56:00,
2013-03-02 21:01:00,23.7,20.3,29.64,NE,45,0.0,2.4,87,0.00,,,0.02,WUHU216HW,2013-03-03 06:01:00,
2013-03-02 21:06:00,23.7,20.3,29.64,NNE,23,0.4,2.4,87,0.00,,,0.02,WUHU216HW,2013-03-03 06:06:00,
2013-03-02 21:11:00,23.5,20.2,29.64,NE,45,4.6,4.6,87,0.00,,,0.02,WUHU216HW,2013-03-03 06:11:00,
2013-03-02 21:16:00,23.5,20.2,29.64,NNE,23,0.0,4.6,87,0.00,,,0.02,WUHU216HW,2013-03-03 06:16:00,
2013-03-02 21:21:00,23.3,20.0,29.64,NNE,23,0.0,4.6,87,0.00,,,0.02,WUHU216HW,2013-03-03 06:21:00,
2013-03-02 21:26:00,23.1,19.8,29.64,NE,45,0.0,4.2,87,0.00,,,0.02,WUHU216HW,2013-03-03 06:26:00,
2013-03-02 21:31:00,23.1,19.8,29.64,NE,45,0.0,4.2,87,0.00,,,0.02,WUHU216HW,2013-03-03 06:31:00,
2013-03-02 21:36:00,23.0,19.6,29.63,NE,45,0.0,0.0,87,0.00,,,0.02,WUHU216HW,2013-03-03 06:36:00,
2013-03-02 21:41:00,23.0,19.6,29.63,NNE,23,0.0,1.7,87,0.00,,,0.02,WUHU216HW,2013-03-03 06:41:00,
2013-03-02 21:46:00,22.8,19.4,29.64,NE,45,0.0,1.7,87,0.00,,,0.02,WUHU216HW,2013-03-03 06:46:00,
2013-03-02 21:51:00,22.8,19.7,29.64,NE,45,0.2,3.8,88,0.00,,,0.02,WUHU216HW,2013-03-03 06:51:00,
2013-03-02 21:56:00,22.8,19.7,29.63,NE,45,0.0,4.4,88,0.00,,,0.02,WUHU216HW,2013-03-03 06:56:00,
2013-03-02 22:01:00,22.6,19.5,29.64,NNE,23,4.9,6.2,88,0.00,,,0.02,WUHU216HW,2013-03-03 07:01:00,
2013-03-02 22:06:00,22.6,19.5,29.64,NNE,23,0.0,6.2,88,0.00,,,0.02,WUHU216HW,2013-03-03 07:06:00,
2013-03-02 22:11:00,22.6,19.5,29.64,NNE,23,0.0,4.9,88,0.00,,,0.02,WUHU216HW,2013-03-03 07:11:00,
2013-03-02 22:16:00,22.4,19.4,29.64,ENE,68,1.7,1.7,88,0.00,,,0.02,WUHU216HW,2013-03-03 07:16:00,
2013-03-02 22:21:00,22.4,19.4,29.65,NE,45,0.0,3.3,88,0.00,,,0.02,WUHU216HW,2013-03-03 07:21:00,
2013-03-02 22:26:00,22.4,19.4,29.65,NE,45,2.2,3.3,88,0.00,,,0.02,WUHU216HW,2013-03-03 07:26:00,
2013-03-02 22:31:00,22.2,19.2,29.65,NNE,23,0.6,3.3,88,0.00,,,0.02,WUHU216HW,2013-03-03 07:31:00,
2013-03-02 22:36:00,22.2,19.2,29.65,NNE,23,0.0,3.3,88,0.00,,,0.02,WUHU216HW,2013-03-03 07:36:00,
2013-03-02 22:41:00,22.2,19.2,29.65,NE,45,0.0,2.0,88,0.00,,,0.02,WUHU216HW,2013-03-03 07:41:00,
2013-03-02 22:46:00,22.1,19.0,29.65,NE,45,0.0,2.6,88,0.00,,,0.02,WUHU216HW,2013-03-03 07:46:00,
2013-03-02 22:51:00,22.1,19.0,29.65,NNE,23,2.6,2.6,88,0.00,,,0.02,WUHU216HW,2013-03-03 07:51:00,
2013-03-02 22:56:00,21.9,18.8,29.65,NNE,23,0.0,2.6,88,0.00,,,0.02,WUHU216HW,2013-03-03 07:56:00,
2013-03-02 23:01:00,21.7,18.6,29.65,NNE,23,1.7,1.7,88,0.00,,,0.02,WUHU216HW,2013-03-03 08:01:00,
2013-03-02 23:06:00,21.5,18.5,29.65,NE,45,2.9,2.9,88,0.00,,,0.02,WUHU216HW,2013-03-03 08:06:00,
2013-03-02 23:11:00,21.5,18.5,29.65,NNE,23,2.6,2.9,88,0.00,,,0.02,WUHU216HW,2013-03-03 08:11:00,
2013-03-02 23:16:00,21.3,18.3,29.65,NE,45,2.9,2.9,88,0.00,,,0.02,WUHU216HW,2013-03-03 08:16:00,
2013-03-02 23:21:00,21.3,18.3,29.65,NNE,23,0.0,2.9,88,0.00,,,0.02,WUHU216HW,2013-03-03 08:21:00,
2013-03-02 23:26:00,21.3,18.3,29.65,NE,45,0.0,2.9,88,0.00,,,0.02,WUHU216HW,2013-03-03 08:26:00,
2013-03-02 23:31:00,21.3,18.3,29.65,NNE,23,0.0,2.9,88,0.00,,,0.02,WUHU216HW,2013-03-03 08:31:00,
2013-03-02 23:36:00,21.3,18.3,29.65,NE,45,0.0,0.0,88,0.00,,,0.02,WUHU216HW,2013-03-03 08:36:00,
2013-03-02 23:41:00,21.3,18.3,29.65,NNE,23,1.1,1.1,88,0.00,,,0.02,WUHU216HW,2013-03-03 08:41:00,
2013-03-02 23:46:00,21.3,18.3,29.66,NE,45,0.0,1.1,88,0.00,,,0.02,WUHU216HW,2013-03-03 08:46:00,
2013-03-02 23:51:00,21.3,18.3,29.65,NE,45,0.0,1.1,88,0.00,,,0.02,WUHU216HW,2013-03-03 08:51:00,
2013-03-02 23:56:00,21.3,18.5,29.65,NNE,23,0.0,2.2,89,0.00,,,0.02,WUHU216HW,2013-03-03 08:56:00,